IRIDIUM 33 DEB

Satellite information

Favourite Embed

Satellite Type and Status

DEBRISIN ORBIT

Key statistics

Satellite IRIDIUM 33 DEB at a glance.

Uptime

10317

Days in orbit

Revolutions

≈ 14.4

Per day

Orbit

LEO

Low Earth Orbit

Inclination

86.4

Latest

Satellite identification and parameters

Extended collection of information and parameters for IRIDIUM 33 DEB.

Object identification

Identified? True

Debris? True

Object name: IRIDIUM 33 DEB

International designator: 1997-051HS

Object number (NORAD): 34525

Object ID (CCSDS): 34525

Country: UNITED STATES OF AMERICA (US)

Current information (Y/N): Y

RCS size: SMALL

Orbital parameters

Period: 99.799 minutes

Inclination: 86.3729 deg

SMA: 7127.056 km

Apoapsis: 753.667 km

Periapsis: 744.174 km

RAAN: 47.0719 deg

Eccentricy: 0.00066596

Argument of periapsis: 96.5005 deg

Mean anomaly: 318.3145 deg

Mean motion: 14.42904301 rev/day

Mean motion (dot): 0.00001999 rev/day2

B* drag term: 0.00059243464 1/REarth

Two-line elements (TLE)

Creation date: Dec. 12, 2025, 10:14 a.m.

Reference frame: TEME

Reference center: EARTH

Epoch: Dec. 12, 2025, 4:55 a.m. UTC

TLE line 0: 0 IRIDIUM 33 DEB

TLE line 1: 1 34525U 97051HS 25346.20490314 .00001999 00000-0 59243-3 0 9998

TLE line 2: 2 34525 86.3729 47.0719 0006660 96.5005 318.3145 14.42904301880804

Live tracking on map

Real-time ground track for satellite IRIDIUM 33 DEB.

In-orbit conjunctions

A list of the most updated potential collisions computed for object IRIDIUM 33 DEB.

Target Orbit TCA Probability of collision Miss distance Type
FENGYUN 1C DEB SSO 2025-09-03 13:04:31 0.0001595642 120.0 (m) DEBRIS
CZ-6A DEB LEO 2025-04-22 20:07:38 0.0001519597 99.0 (m) DEBRIS
CZ-6A DEB SSO 2024-12-17 13:09:28 0.0001013524 128.0 (m) DEBRIS
YAOGAN 30 DEB SSO 2024-09-28 05:01:58 0.0007736973 70.0 (m) DEBRIS
NOAA 16 DEB SSO 2024-09-02 05:49:49 0.0001128163 355.0 (m) DEBRIS

Associated space launch

Iridium provides global mobile telecommunications services using a constellation of 66 low earth orbit satellites in a 86.4° inclined orbit. Although 77 satellites were originally envisioned for the system and spawned the name based on the 77th element in the periodic table, the system has been scaled back. Motorola's Satellite Communications Group designed and manufactured the Iridium satellites with Lockheed Martin providing the LM-700A spacecraft buses.

IRIDIUM 33 DEB was lifted into orbit during the mission ‘Proton-K/17S40 | Iridium 27 to 33’, on board a Proton-K/17S40 space rocket.

The launch took place on Sept. 14, 1997, 1:36 a.m. from 81/23 (81L).

For more information about the launch, click the button.

Launch to space Proton-K/17S40 | Iridium 27 to 33
Proton-K/17S40 | Iridium 27 to 33

Agency: N/A

Status: Launch Successful

Launch date: Sept. 14, 1997, 1:36 a.m. UTC

Rocket: Proton-K/17S40

Launch pad: 81/23 (81L)

Location: Baikonur Cosmodrome, Republic of Kazakhstan

...

Latest news about this satellite

There are no fresh news available about this satellite. Check back as we update our databases every day.


Newsletter sign-up

Weekly statistics, charts and insights to help you stay on top of the space industry.